"2010-12-01 00:00:00",11114,12.81,192.9,18.77,22.67,50.36,50.39,50.33,90.3,"NAN",0,0,12.35
"2010-12-01 00:05:00",11115,10.91,197.4,18.72,20.25,50.38,50.39,50.35,90.3,"NAN",0,0,12.35
"2010-12-01 00:10:00",11116,11.67,195.4,16.08,16.91,50.39,50.42,50.36,90.4,"NAN",0,0,12.35
"2010-12-01 00:15:00",11117,11.07,197.3,19.04,18.58,50.45,50.5,50.39,90.5,"NAN",0,0,12.35
"2010-12-01 00:20:00",11118,10.66,199.5,18.22,18.64,50.51,50.58,50.44,90.8,"NAN",0,0,12.35
"2010-12-01 00:25:00",11119,12.2,208.7,16.69,21.12,50.64,50.71,50.55,91,"NAN",0,0,12.35
"2010-12-01 00:30:00",11120,13.43,212.4,15.31,23.23,50.73,50.79,50.68,91.1,"NAN",0,0,12.35
"2010-12-01 00:35:00",11121,15.03,221.2,13.03,24.99,50.73,50.77,50.69,91.2,"NAN",0,0,12.35
"2010-12-01 00:40:00",11122,15.12,220.6,13.87,22.55,50.67,50.72,50.6,91.2,"NAN",0,0,12.35
"2010-12-01 00:45:00",11123,14.05,217.9,16.04,22.22,50.58,50.63,50.52,91.3,"NAN",0,0,12.35
"2010-12-01 00:50:00",11124,15.03,221.2,11.85,21.38,50.49,50.55,50.42,91.5,"NAN",0,0,12.35
"2010-12-01 00:55:00",11125,15.52,217.6,12.83,25.11,50.38,50.48,50.34,91.8,"NAN",0.01,0.01,12.35
"2010-12-01 01:00:00",11126,14.01,215.9,14.87,22.88,50.3,50.37,50.28,92.1,"NAN",0.01,0.02,12.35
"2010-12-01 01:05:00",11127,14.02,216.4,15.01,21.44,50.28,50.31,50.25,92.2,"NAN",0.01,0.03,12.34
"2010-12-01 01:10:00",11128,12.89,214.9,15.24,20.1,50.28,50.28,50.25,92.3,"NAN",0.01,0.04,12.34
"2010-12-01 01:15:00",11129,14.28,212,15.09,23.03,50.23,50.28,50.17,92.4,"NAN",0,0.04,12.34
"2010-12-01 01:20:00",11130,15.92,214.2,13.6,25.23,50.17,50.2,50.14,92.3,"NAN",0.01,0.05,12.34
"2010-12-01 01:25:00",11131,14.03,210.8,15.43,22.1,50.14,50.17,50.11,92.2,"NAN",0,0.05,12.34
"2010-12-01 01:30:00",11132,14.52,208.2,14.68,23.23,50.14,50.17,50.11,92.2,"NAN",0,0.05,12.35
"2010-12-01 01:35:00",11133,13.8,209.5,17.75,23.77,50.11,50.14,50.05,92.2,"NAN",0,0.05,12.34
"2010-12-01 01:40:00",11134,11.31,210.8,15.48,17.9,50.08,50.12,50.05,92.2,"NAN",0,0.05,12.34
"2010-12-01 01:45:00",11135,14.36,210.3,15.22,22.73,50.11,50.14,50.06,92.1,"NAN",0,0.05,12.34
"2010-12-01 01:50:00",11136,12.95,210.6,14.33,20.22,50.13,50.16,50.1,92.1,"NAN",0,0.05,12.34
"2010-12-01 01:55:00",11137,10.6,212.6,14.26,18.19,50.14,50.16,50.11,92.1,"NAN",0,0.05,12.34
"2010-12-01 02:00:00",11138,13.11,209.3,15.03,19.72,50.16,50.17,50.11,92.1,"NAN",0,0.05,12.34
"2010-12-01 02:05:00",11139,11.02,207.4,15.15,18.19,50.16,50.19,50.13,92.1,"NAN",0,0.05,12.34
"2010-12-01 02:10:00",11140,10.93,206.9,16.31,17.54,50.18,50.24,50.15,92.1,"NAN",0.01,0.06,12.34
"2010-12-01 02:15:00",11141,9.85,212.8,14.35,14.47,50.22,50.24,50.16,92.1,"NAN",0,0.06,12.34
"2010-12-01 02:20:00",11142,10.71,216.2,13.18,21.98,50.24,50.27,50.21,92.2,"NAN",0.01,0.07,12.34
"2010-12-01 02:25:00",11143,11.73,220.9,15.2,17.39,50.25,50.27,50.23,92.2,"NAN",0,0.07,12.34
"2010-12-01 02:30:00",11144,11.92,221.2,14.22,16.02,50.23,50.27,50.21,92.3,"NAN",0,0.07,12.34
"2010-12-01 02:35:00",11145,9.54,219.6,16.5,16.58,50.18,50.23,50.15,92.4,"NAN",0.01,0.08,12.34
"2010-12-01 02:40:00",11146,11.01,218.8,15.85,16.85,50.16,50.21,50.15,92.6,"NAN",0.01,0.09,12.34
"2010-12-01 02:45:00",11147,12.63,227.9,11.57,18.34,50.22,50.27,50.15,92.7,"NAN",0.02,0.11,12.34
"2010-12-01 02:50:00",11148,11.88,223.9,14.74,19.06,50.24,50.27,50.19,92.7,"NAN",0,0.11,12.34
"2010-12-01 02:55:00",11149,12.2,219.7,13.39,16.64,50.2,50.24,50.16,92.8,"NAN",0,0.11,12.33
"2010-12-01 03:00:00",11150,12.11,219.7,14.16,18.91,50.2,50.22,50.15,92.8,"NAN",0,0.11,12.33
"2010-12-01 03:05:00",11151,11.46,208.7,16.77,18.46,50.21,50.25,50.16,92.9,"NAN",0,0.11,12.33
"2010-12-01 03:10:00",11152,13.01,220,12.38,19.57,50.26,50.3,50.19,93,"NAN",0.01,0.12,12.33
"2010-12-01 03:15:00",11153,11.2,237.1,12.84,17.87,50.36,50.4,50.3,93.1,"NAN",0.01,0.13,12.33
"2010-12-01 03:20:00",11154,7.228,328.5,27.48,11.04,50.25,50.38,50.05,92.7,"NAN",0.01,0.14,12.33
"2010-12-01 03:25:00",11155,8.6,345.8,20.35,13.6,49.86,50.05,49.68,92.6,"NAN",0.01,0.15,12.33
"2010-12-01 03:30:00",11156,9.04,345.5,21.11,13.18,49.57,49.71,49.48,92.7,"NAN",0,0.15,12.33
"2010-12-01 03:35:00",11157,8.17,344.5,22.51,13.69,49.45,49.51,49.4,92.8,"NAN",0,0.15,12.33
"2010-12-01 03:40:00",11158,7.179,335.8,27.32,11.4,49.35,49.4,49.28,92.8,"NAN",0,0.15,12.33
"2010-12-01 03:45:00",11159,8.22,338,22.44,13.01,49.12,49.28,48.96,92.5,"NAN",0,0.15,12.33
"2010-12-01 03:50:00",11160,8.58,340.6,24.99,14.68,48.85,48.98,48.74,92.6,"NAN",0.01,0.16,12.33
"2010-12-01 03:55:00",11161,7.306,337.1,26.1,10.56,48.69,48.74,48.63,92.6,"NAN",0.01,0.17,12.33
"2010-12-01 04:00:00",11162,6.07,339.7,24.27,11.66,48.54,48.63,48.46,92.6,"NAN",0,0.17,12.33
"2010-12-01 04:05:00",11163,5.729,338.6,25.81,8.2,48.44,48.49,48.4,92.7,"NAN",0,0.17,12.33
"2010-12-01 04:10:00",11164,6.525,334.2,21.39,10.23,48.39,48.43,48.34,92.7,"NAN",0,0.17,12.33
"2010-12-01 04:15:00",11165,6.576,331,22.11,9.9,48.33,48.37,48.28,92.7,"NAN",0,0.17,12.33
"2010-12-01 04:20:00",11166,6.54,338.5,20.57,10.56,48.3,48.34,48.28,92.7,"NAN",0,0.17,12.33
"2010-12-01 04:25:00",11167,5.459,343,24.89,9.43,48.28,48.31,48.28,92.7,"NAN",0.02,0.19,12.33
"2010-12-01 04:30:00",11168,4.567,339.6,23.97,8.06,48.27,48.28,48.25,92.7,"NAN",0.01,0.2,12.33
"2010-12-01 04:35:00",11169,5.03,341.7,27.01,8.62,48.27,48.27,48.22,92.7,"NAN",0,0.2,12.32
"2010-12-01 04:40:00",11170,5.119,352.9,17.98,7.161,48.25,48.28,48.22,92.6,"NAN",0,0.2,12.32
"2010-12-01 04:45:00",11171,4.742,347.2,26.83,8.06,48.26,48.28,48.22,92.6,"NAN",0,0.2,12.32
"2010-12-01 04:50:00",11172,3.489,357.8,34.2,5.849,48.22,48.25,48.19,92.6,"NAN",0,0.2,12.32
"2010-12-01 04:55:00",11173,1.369,349.7,25.49,2.777,48.17,48.22,48.14,92.5,"NAN",0,0.2,12.32
"2010-12-01 05:00:00",11174,1.724,332,29.05,2.867,48.16,48.17,48.11,92.5,"NAN",0,0.2,12.32
"2010-12-01 05:05:00",11175,1.184,316.9,25.87,1.733,48.17,48.17,48.14,92.5,"NAN",0,0.2,12.32
"2010-12-01 05:10:00",11176,1.235,290.2,25.47,1.733,48.14,48.17,48.11,92.4,"NAN",0,0.2,12.32
"2010-12-01 05:15:00",11177,1.271,281.3,48.73,2.3,48.06,48.11,48.06,92.4,"NAN",0,0.2,12.32
"2010-12-01 05:20:00",11178,1.078,261.3,32.32,2.21,48.02,48.06,48,92.4,"NAN",0,0.2,12.32
"2010-12-01 05:25:00",11179,1.605,281.7,14.38,2.926,48.05,48.06,48,92.4,"NAN",0,0.2,12.32
"2010-12-01 05:30:00",11180,2.791,292.2,8.69,3.314,48.06,48.06,48.06,92.4,"NAN",0,0.2,12.32
"2010-12-01 05:35:00",11181,3.71,310.6,5.939,4.387,48.03,48.06,48,92.3,"NAN",0,0.2,12.32
"2010-12-01 05:40:00",11182,4.153,316.1,9.79,5.163,48.01,48.06,47.98,92.2,"NAN",0,0.2,12.32
"2010-12-01 05:45:00",11183,4.776,324.8,15.9,6.624,47.97,48,47.95,92,"NAN",0,0.2,12.31
"2010-12-01 05:50:00",11184,4.214,326,17.23,6.027,47.95,47.95,47.92,91.8,"NAN",0,0.2,12.31
"2010-12-01 05:55:00",11185,2.397,328.9,28.92,4.059,47.94,47.95,47.89,91.8,"NAN",0,0.2,12.31
"2010-12-01 06:00:00",11186,2.777,322.7,23.75,5.58,47.88,47.92,47.84,91.6,"NAN",0,0.2,12.31
"2010-12-01 06:05:00",11187,3.242,315,24.49,5.699,47.81,47.84,47.76,91.6,"NAN",0,0.2,12.31
"2010-12-01 06:10:00",11188,1.693,339.2,29.84,3.314,47.75,47.79,47.73,91.6,"NAN",0.02,0.22,12.31
"2010-12-01 06:15:00",11189,1.133,359.1,18.6,1.942,47.73,47.76,47.73,91.6,"NAN",0.01,0.23,12.31
"2010-12-01 06:20:00",11190,1.364,331.5,21.26,2.896,47.73,47.76,47.7,91.6,"NAN",0,0.23,12.31
"2010-12-01 06:25:00",11191,1.133,326.3,25.44,2.091,47.7,47.73,47.62,91.5,"NAN",0,0.23,12.31
"2010-12-01 06:30:00",11192,1.818,304.1,9.76,2.3,47.59,47.65,47.52,91.4,"NAN",0,0.23,12.31
"2010-12-01 06:35:00",11193,2.428,290.6,7.668,3.135,47.46,47.52,47.41,91.5,"NAN",0,0.23,12.31
"2010-12-01 06:40:00",11194,2.854,307.3,10.54,3.552,47.31,47.41,47.27,91.5,"NAN",0,0.23,12.31
"2010-12-01 06:45:00",11195,2.564,339.5,17.69,3.612,47.3,47.35,47.27,91.8,"NAN",0,0.23,12.3
"2010-12-01 06:50:00",11196,2.493,341.7,24.17,3.403,47.34,47.38,47.3,91.7,"NAN",0,0.23,12.3
"2010-12-01 06:55:00",11197,2.395,335.1,18.87,3.97,47.29,47.38,47.24,91.6,"NAN",0,0.23,12.3
"2010-12-01 07:00:00",11198,1.905,347.3,21.37,2.598,47.22,47.27,47.19,91.6,"NAN",0,0.23,12.3
"2010-12-01 07:05:00",11199,2.337,355.4,19.52,3.224,47.19,47.22,47.19,91.8,"NAN",0,0.23,12.3
"2010-12-01 07:10:00",11200,0.841,339.9,22.27,1.823,47.16,47.19,47.08,91.6,"NAN",0,0.23,12.3
"2010-12-01 07:15:00",11201,0.535,179.1,13.92,2.867,47.01,47.08,46.92,91.5,"NAN",0,0.23,12.3
"2010-12-01 07:20:00",11202,1.749,213.8,23.03,2.896,46.84,46.92,46.75,91.5,"NAN",0,0.23,12.3
"2010-12-01 07:25:00",11203,1.797,235.5,6.596,2.24,46.77,46.81,46.75,91.7,"NAN",0,0.23,12.3
"2010-12-01 07:30:00",11204,0.259,253.1,5.462,1.853,46.75,46.75,46.73,91.8,"NAN",0,0.23,12.3
"2010-12-01 07:35:00",11205,2.683,316.9,19.45,3.672,46.82,46.89,46.75,92,"NAN",0,0.23,12.3
"2010-12-01 07:40:00",11206,2.195,356.2,14.74,3.075,46.99,47.08,46.86,92.2,"NAN",0,0.23,12.29
"2010-12-01 07:45:00",11207,1.367,48,8.79,2.27,47.08,47.11,47.08,92,"NAN",0,0.23,12.29
"2010-12-01 07:50:00",11208,1.776,0.742,16.28,3.224,47.1,47.16,47.08,92.1,"NAN",0,0.23,12.29
"2010-12-01 07:55:00",11209,2.327,350,15.87,3.135,47.2,47.24,47.13,92.2,"NAN",0,0.23,12.29
"2010-12-01 08:00:00",11210,1.792,350.8,26.37,2.956,47.17,47.24,47.11,92,"NAN",0,0.23,12.29
"2010-12-01 08:05:00",11211,2.261,358.2,16.51,4.715,47.13,47.16,47.11,92.1,"NAN",0,0.23,12.29
"2010-12-01 08:10:00",11212,2.578,354.7,21.6,5.073,47.09,47.13,47.08,92,"NAN",0,0.23,12.29
"2010-12-01 08:15:00",11213,3.104,350.7,22.66,6.206,47.06,47.11,47.03,91.9,"NAN",0,0.23,12.29
"2010-12-01 08:20:00",11214,2.565,350.5,22.43,4.924,46.99,47.03,46.97,91.8,"NAN",0,0.23,12.29
"2010-12-01 08:25:00",11215,2.794,356,24.42,5.699,46.96,46.97,46.92,91.7,"NAN",0,0.23,12.29
"2010-12-01 08:30:00",11216,3.263,20.44,15.69,5.729,46.93,46.97,46.92,91.5,"NAN",0,0.23,12.29
"2010-12-01 08:35:00",11217,2.445,19.12,21.43,5.252,46.93,46.97,46.89,91.4,"NAN",0,0.23,12.29
"2010-12-01 08:40:00",11218,2.166,24.09,26.3,4.149,46.87,46.92,46.86,91.2,"NAN",0,0.23,12.29
"2010-12-01 08:45:00",11219,0.389,0.618,19,1.674,46.85,46.86,46.81,91.1,"NAN",0,0.23,12.29
"2010-12-01 08:50:00",11220,0.054,358.6,26.08,0.928,46.76,46.84,46.7,90.9,"NAN",0,0.23,12.29
"2010-12-01 08:55:00",11221,1.23,100.9,14.83,3.105,46.68,46.73,46.65,90.8,"NAN",0,0.23,12.29
"2010-12-01 09:00:00",11222,2.36,90.4,17.84,3.91,46.66,46.73,46.62,90.8,"NAN",0,0.23,12.29
"2010-12-01 09:05:00",11223,3.698,79.35,13.88,5.998,46.8,46.89,46.7,90.6,"NAN",0,0.23,12.3
"2010-12-01 09:10:00",11224,4.151,95.5,17.04,6.057,47.01,47.16,46.89,90.6,"NAN",0,0.23,12.31
"2010-12-01 09:15:00",11225,2.548,131.5,25.01,4.864,47.19,47.24,47.11,90.6,"NAN",0,0.23,12.32
"2010-12-01 09:20:00",11226,1.425,195.1,28.41,3.224,47.19,47.19,47.19,90.5,"NAN",0,0.23,12.32
"2010-12-01 09:25:00",11227,0.9,198.3,75.64,1.853,47.18,47.19,47.13,90.4,"NAN",0,0.23,12.32
"2010-12-01 09:30:00",11228,2.987,122.1,18.88,5.64,47.22,47.27,47.19,90.7,"NAN",0,0.23,12.32
"2010-12-01 09:35:00",11229,1.895,145.4,15.13,3.493,47.15,47.19,47.11,90.7,"NAN",0,0.23,12.33
"2010-12-01 09:40:00",11230,2.355,136.7,13.46,3.731,47.18,47.22,47.13,90.8,"NAN",0,0.23,12.34
"2010-12-01 09:45:00",11231,3.297,119.9,12.47,3.94,47.24,47.3,47.19,90.8,"NAN",0,0.23,12.35
"2010-12-01 09:50:00",11232,3.234,137.4,7.532,3.761,47.3,47.35,47.24,90.7,"NAN",0,0.23,12.37
"2010-12-01 09:55:00",11233,3.22,135.6,10.89,3.94,47.39,47.51,47.32,90.8,"NAN",0,0.23,12.39
"2010-12-01 10:00:00",11234,3.479,120,8.66,4.268,47.51,47.6,47.43,90.6,"NAN",0,0.23,12.38
"2010-12-01 10:05:00",11235,3.2,125.8,10.71,3.821,47.48,47.52,47.43,90.4,"NAN",0,0.23,12.35
"2010-12-01 10:10:00",11236,3.113,138.3,8.24,3.701,47.54,47.57,47.51,90.3,"NAN",0,0.23,12.33
"2010-12-01 10:15:00",11237,3.191,138.5,7.571,4.03,47.49,47.54,47.46,90.3,"NAN",0,0.23,12.34
"2010-12-01 10:20:00",11238,3.2,146.1,8.03,3.761,47.56,47.63,47.51,90.4,"NAN",0,0.23,12.36
"2010-12-01 10:25:00",11239,2.752,145.2,9.24,3.224,47.61,47.63,47.57,90.2,"NAN",0,0.23,12.38
"2010-12-01 10:30:00",11240,3.237,112.2,9.04,3.851,47.68,47.73,47.62,90.1,"NAN",0,0.23,12.4
"2010-12-01 10:35:00",11241,3.85,96.6,5.496,4.566,47.74,47.76,47.7,90.1,"NAN",0,0.23,12.4
"2010-12-01 10:40:00",11242,4.232,87.2,7.085,5.014,47.74,47.79,47.73,90.2,"NAN",0,0.23,12.42
"2010-12-01 10:45:00",11243,4.005,104.8,8.22,4.835,47.83,47.89,47.76,90.4,"NAN",0,0.23,12.47
"2010-12-01 10:50:00",11244,3.503,108,9.66,4.268,47.99,48.11,47.89,90.7,"NAN",0,0.23,12.54
"2010-12-01 10:55:00",11245,2.706,105.6,9.72,3.373,48.14,48.19,48.08,90.6,"NAN",0,0.23,12.62
"2010-12-01 11:00:00",11246,2.777,113.8,6.923,3.314,48.22,48.38,48.14,90.7,"NAN",0,0.23,12.75
"2010-12-01 11:05:00",11247,3.304,123.8,9.13,5.55,48.8,49.09,48.38,90.9,"NAN",0,0.23,13.07
"2010-12-01 11:10:00",11248,5.232,112.8,5.774,7.608,49.21,49.28,49.09,89.8,"NAN",0,0.23,13.09
"2010-12-01 11:15:00",11249,5.034,109.7,4.967,8.59,49.36,49.48,49.23,89.2,"NAN",0,0.23,13.1
"2010-12-01 11:20:00",11250,4.587,127.2,11.13,7.697,49.69,49.93,49.46,88.5,"NAN",0,0.23,13.32
"2010-12-01 11:25:00",11251,4.117,147.9,11.32,6.982,50.03,50.11,49.87,86.9,"NAN",0,0.23,13.11
"2010-12-01 11:30:00",11252,2.718,192,17.99,5.133,49.85,49.88,49.82,86.5,"NAN",0,0.23,12.94
"2010-12-01 11:35:00",11253,2.181,179,10.55,4.059,49.77,49.85,49.63,86,"NAN",0,0.23,12.9
"2010-12-01 11:40:00",11254,2.54,164,10.8,3.016,49.59,49.63,49.55,85.4,"NAN",0,0.23,12.93
"2010-12-01 11:45:00",11255,2.457,182.6,9.87,2.986,49.63,49.72,49.55,84.7,"NAN",0,0.23,12.9
"2010-12-01 11:50:00",11256,2.361,192.3,16.69,3.344,49.82,49.93,49.69,84.6,"NAN",0,0.23,12.9
"2010-12-01 11:55:00",11257,2.713,236.3,25.77,3.88,50.11,50.29,49.93,84.8,"NAN",0,0.23,12.89
"2010-12-01 12:00:00",11258,3.668,244.7,13.41,5.133,50.33,50.39,50.26,85,"NAN",0,0.23,12.87
"2010-12-01 12:05:00",11259,4.245,235.8,10.37,6.027,50.2,50.29,50.15,85.3,"NAN",0,0.23,12.86
"2010-12-01 12:10:00",11260,3.216,259.3,14.28,4.596,50.1,50.18,50.01,85.6,"NAN",0,0.23,12.86
"2010-12-01 12:15:00",11261,2.523,274.7,11.77,3.403,50.16,50.26,50.07,85.6,"NAN",0,0.23,12.89
"2010-12-01 12:20:00",11262,2.818,261.3,7.988,3.552,50.21,50.26,50.15,84.6,"NAN",0,0.23,12.92
"2010-12-01 12:25:00",11263,3.481,286.9,14.59,5.163,50.37,50.48,50.2,83.8,"NAN",0,0.23,12.92
"2010-12-01 12:30:00",11264,3.886,270.9,14.65,4.835,50.32,50.39,50.26,82.7,"NAN",0,0.23,12.93
"2010-12-01 12:35:00",11265,4.122,258.4,13.1,5.431,50.34,50.37,50.23,82.5,"NAN",0,0.23,12.92
"2010-12-01 12:40:00",11266,3.149,259.6,18.58,4.298,50.28,50.39,50.18,82.5,"NAN",0,0.23,12.89
"2010-12-01 12:45:00",11267,2.85,239.3,15.92,3.94,50.43,50.5,50.37,82.6,"NAN",0,0.23,12.87
"2010-12-01 12:50:00",11268,3.087,237.3,11.26,3.851,50.32,50.4,50.23,82.7,"NAN",0,0.23,12.84
"2010-12-01 12:55:00",11269,3.572,225.7,7.649,4.447,50.14,50.26,50.04,83,"NAN",0,0.23,12.83
"2010-12-01 13:00:00",11270,3.362,237.4,13.29,4.507,50,50.07,49.96,83.3,"NAN",0,0.23,12.82
"2010-12-01 13:05:00",11271,3.672,241.6,7.745,4.626,49.99,50.07,49.96,83.4,"NAN",0,0.23,12.82
"2010-12-01 13:10:00",11272,3.575,249.5,12.47,4.268,50.05,50.08,50.02,83.6,"NAN",0,0.23,12.81
"2010-12-01 13:15:00",11273,3.863,249.8,10.8,5.193,50.08,50.12,50.04,83.3,"NAN",0,0.23,12.8
"2010-12-01 13:20:00",11274,4.024,237.2,10.44,5.103,49.97,50.07,49.94,83.2,"NAN",0,0.23,12.79
"2010-12-01 13:25:00",11275,3.142,230.9,8.95,3.88,50.02,50.07,49.96,83.7,"NAN",0,0.23,12.79
"2010-12-01 13:30:00",11276,3.078,240.6,12.08,3.88,50.06,50.1,50.02,83.8,"NAN",0,0.23,12.78
"2010-12-01 13:35:00",11277,2.991,239.3,12.49,4.119,50.24,50.34,50.07,84.1,"NAN",0,0.23,12.78
"2010-12-01 13:40:00",11278,3.235,240.9,12.51,4,50.27,50.32,50.23,83.9,"NAN",0,0.23,12.79
"2010-12-01 13:45:00",11279,3.706,231.6,10.64,5.133,50.35,50.4,50.26,83.2,"NAN",0,0.23,12.81
"2010-12-01 13:50:00",11280,3.995,258.4,14.29,5.491,50.46,50.59,50.31,82.6,"NAN",0,0.23,12.83
"2010-12-01 13:55:00",11281,4.351,276.5,8.6,5.342,50.45,50.51,50.39,80.1,"NAN",0,0.23,12.84
"2010-12-01 14:00:00",11282,3.974,283.4,12.93,5.252,50.62,50.73,50.51,79.52,"NAN",0,0.23,12.85
"2010-12-01 14:05:00",11283,4.746,284.8,8.05,7.459,50.71,50.81,50.64,78.68,"NAN",0,0.23,12.85
"2010-12-01 14:10:00",11284,4.092,284.6,12.11,6.356,50.72,50.84,50.62,78.32,"NAN",0,0.23,12.85
"2010-12-01 14:15:00",11285,4.697,301.9,10.94,8.11,50.78,50.84,50.73,78.08,"NAN",0,0.23,12.85
"2010-12-01 14:20:00",11286,4.63,312.1,20.84,6.475,50.78,50.92,50.72,77.81,"NAN",0,0.23,12.84
"2010-12-01 14:25:00",11287,4.532,312,13.02,5.64,50.76,50.84,50.7,76.9,"NAN",0,0.23,12.82
"2010-12-01 14:30:00",11288,4.422,312,12.49,6.415,50.78,50.84,50.71,76.7,"NAN",0,0.23,12.81
"2010-12-01 14:35:00",11289,4.865,319.1,18.05,7.966,50.6,50.71,50.51,76.12,"NAN",0,0.23,12.81
"2010-12-01 14:40:00",11290,3.627,333.1,22.43,5.312,50.7,50.86,50.57,76.61,"NAN",0,0.23,12.83
"2010-12-01 14:45:00",11291,4.305,324.1,22,6.862,50.84,50.89,50.81,76.42,"NAN",0,0.23,12.84
"2010-12-01 14:50:00",11292,5.219,299.3,9.22,9.16,50.81,50.9,50.73,76.8,"NAN",0,0.23,12.82
"2010-12-01 14:55:00",11293,3.834,301.3,12.37,7.906,50.71,50.78,50.65,76.34,"NAN",0,0.23,12.81
"2010-12-01 15:00:00",11294,4.928,306.1,10.19,8.5,50.76,50.83,50.73,76.19,"NAN",0,0.23,12.8
"2010-12-01 15:05:00",11295,4.372,309.9,10.66,6.087,50.76,50.84,50.7,74.99,"NAN",0,0.23,12.82
"2010-12-01 15:10:00",11296,5.053,309.2,13.92,7.012,50.85,50.9,50.83,74.54,"NAN",0,0.23,12.86
"2010-12-01 15:15:00",11297,4.532,309.1,10.44,6.147,50.95,51.03,50.87,74.56,"NAN",0,0.23,12.87
"2010-12-01 15:20:00",11298,5.8,312.5,22.29,11.22,51.09,51.16,50.91,73.81,"NAN",0,0.23,12.87
"2010-12-01 15:25:00",11299,9.83,315.3,10.57,13.45,50.7,50.92,50.46,70.32,"NAN",0,0.23,12.88
"2010-12-01 15:30:00",11300,7.751,316.2,22.22,11.96,50.44,50.51,50.4,70.5,"NAN",0,0.23,12.86
"2010-12-01 15:35:00",11301,9.32,315,11.73,13.39,50.19,50.41,50.07,71.31,"NAN",0,0.23,12.82
"2010-12-01 15:40:00",11302,8.59,311.8,9.39,11.54,49.92,50.1,49.75,71.86,"NAN",0,0.23,12.79
"2010-12-01 15:45:00",11303,6.836,319.4,19.22,9.9,49.76,49.83,49.72,73.09,"NAN",0,0.23,12.79
"2010-12-01 15:50:00",11304,8.65,312.1,10.71,11.19,49.63,49.8,49.47,73.93,"NAN",0,0.23,12.77
"2010-12-01 15:55:00",11305,6.633,326.7,23.78,10.35,49.39,49.47,49.31,74.27,"NAN",0,0.23,12.73
"2010-12-01 16:00:00",11306,4.434,348.4,25.28,7.25,49.37,49.42,49.31,74.31,"NAN",0,0.23,12.71
"2010-12-01 16:05:00",11307,4.802,343.5,23.29,7.22,49.42,49.45,49.39,74.24,"NAN",0,0.23,12.7
"2010-12-01 16:10:00",11308,4.017,340.2,26.31,6.117,49.47,49.5,49.42,74.16,"NAN",0,0.23,12.67
"2010-12-01 16:15:00",11309,3.828,318.3,18.78,4.715,49.52,49.55,49.5,73.76,"NAN",0,0.23,12.66
"2010-12-01 16:20:00",11310,4.632,310.7,10.53,5.878,49.51,49.55,49.47,73.59,"NAN",0,0.23,12.64
"2010-12-01 16:25:00",11311,5.472,288.4,12.05,8.59,49.51,49.55,49.47,74.87,"NAN",0,0.23,12.64
"2010-12-01 16:30:00",11312,6.825,312.1,18.15,10.44,49.35,49.53,49.2,79.66,"NAN",0,0.23,12.63
"2010-12-01 16:35:00",11313,7.318,317.1,13.85,11.28,48.99,49.2,48.85,82.6,"NAN",0,0.23,12.62
"2010-12-01 16:40:00",11314,5.703,328.3,23.66,10.44,48.81,48.88,48.71,83.7,"NAN",0,0.23,12.61
"2010-12-01 16:45:00",11315,6.623,334.2,26.23,13.12,48.56,48.74,48.41,84,"NAN",0,0.23,12.59
"2010-12-01 16:50:00",11316,7.254,337.7,25.36,11.31,48.3,48.44,48.14,84.5,"NAN",0,0.23,12.58
"2010-12-01 16:55:00",11317,7.119,338.3,24.91,11.57,48.08,48.17,48.01,84.8,"NAN",0,0.23,12.57
"2010-12-01 17:00:00",11318,7.13,332.9,24.31,10.53,47.93,48.01,47.8,85.3,"NAN",0,0.23,12.56
"2010-12-01 17:05:00",11319,5.93,323,22.57,8.8,47.74,47.83,47.63,86.1,"NAN",0,0.23,12.55
"2010-12-01 17:10:00",11320,7.066,320.9,18.53,9.49,47.5,47.66,47.32,86.9,"NAN",0,0.23,12.55
"2010-12-01 17:15:00",11321,5.152,310.5,12.52,7.34,47.18,47.35,46.99,87.7,"NAN",0,0.23,12.54
"2010-12-01 17:20:00",11322,6.047,309.2,12.38,8.38,46.92,47.05,46.87,88.1,"NAN",0,0.23,12.53
"2010-12-01 17:25:00",11323,6.537,314.2,16.19,8.98,46.87,46.87,46.84,88.1,"NAN",0,0.23,12.53
"2010-12-01 17:30:00",11324,7.212,323.8,19.34,9.84,46.88,46.92,46.86,88.1,"NAN",0,0.23,12.53
"2010-12-01 17:35:00",11325,7.711,314.7,14.23,12.02,46.88,46.92,46.86,88.5,"NAN",0,0.23,12.52
"2010-12-01 17:40:00",11326,8.23,319.3,16.98,12.53,46.8,46.86,46.7,89.1,"NAN",0,0.23,12.52
"2010-12-01 17:45:00",11327,9.01,318,14.61,12.71,46.61,46.73,46.54,89.6,"NAN",0,0.23,12.51
"2010-12-01 17:50:00",11328,8.51,316.3,11.96,11.99,46.48,46.54,46.43,90,"NAN",0,0.23,12.51
"2010-12-01 17:55:00",11329,7.609,314.8,12.3,9.99,46.43,46.46,46.4,90.3,"NAN",0,0.23,12.51
"2010-12-01 18:00:00",11330,7.049,318.6,18.24,10.2,46.39,46.43,46.32,90.5,"NAN",0,0.23,12.5
"2010-12-01 18:05:00",11331,7.45,313.5,11.82,11.25,46.38,46.4,46.35,90.7,"NAN",0.01,0.24,12.5
"2010-12-01 18:10:00",11332,9.56,316.7,10.07,12.41,46.26,46.38,46.21,90.6,"NAN",0,0.24,12.5
"2010-12-01 18:15:00",11333,7.992,318.6,14.63,11.28,46.23,46.27,46.21,90.8,"NAN",0,0.24,12.49
"2010-12-01 18:20:00",11334,7.401,311.8,11,9.81,46.19,46.27,46.1,90.7,"NAN",0,0.24,12.49
"2010-12-01 18:25:00",11335,7.761,312.5,9.85,10.89,46.11,46.16,46.08,90.9,"NAN",0,0.24,12.49
"2010-12-01 18:30:00",11336,6.925,316.9,14.24,11.04,46.13,46.16,46.1,91,"NAN",0,0.24,12.49
"2010-12-01 18:35:00",11337,5.916,317.9,15.76,8.8,46.13,46.16,46.1,91.1,"NAN",0,0.24,12.48
"2010-12-01 18:40:00",11338,5.285,314.9,15.36,7.101,46.2,46.21,46.16,91.2,"NAN",0,0.24,12.48
"2010-12-01 18:45:00",11339,5.796,316.5,16.97,8.41,46.2,46.24,46.13,91.3,"NAN",0,0.24,12.48
"2010-12-01 18:50:00",11340,5.094,318,17.48,7.131,46.11,46.16,46.08,91.3,"NAN",0,0.24,12.47
"2010-12-01 18:55:00",11341,5.393,324.1,21.54,11.1,46.04,46.1,46,91.3,"NAN",0,0.24,12.47
"2010-12-01 19:00:00",11342,5.865,311.1,16.19,9.19,45.97,46,45.91,91.4,"NAN",0,0.24,12.47
"2010-12-01 19:05:00",11343,7.374,310.7,11.31,11.25,45.9,45.97,45.89,91.5,"NAN",0,0.24,12.46
"2010-12-01 19:10:00",11344,7.328,307.4,10.06,12.56,45.89,45.94,45.89,91.5,"NAN",0,0.24,12.46
"2010-12-01 19:15:00",11345,4.924,295.8,11.46,8.32,45.98,46,45.91,91.6,"NAN",0,0.24,12.46
"2010-12-01 19:20:00",11346,5.597,291.9,11.57,10.59,45.95,46,45.91,91.5,"NAN",0,0.24,12.46
"2010-12-01 19:25:00",11347,5.091,291.7,11.57,10.17,45.9,45.94,45.86,91.6,"NAN",0,0.24,12.46
"2010-12-01 19:30:00",11348,4.564,297.5,14.54,6.057,45.86,45.89,45.81,91.6,"NAN",0,0.24,12.45
"2010-12-01 19:35:00",11349,3.789,333.1,22.11,5.819,45.84,45.89,45.81,91.8,"NAN",0,0.24,12.45
"2010-12-01 19:40:00",11350,3.786,351.6,18.04,6.475,45.8,45.89,45.59,91.4,"NAN",0.01,0.25,12.45
"2010-12-01 19:45:00",11351,3.501,324,21.53,6.027,45.57,45.62,45.53,91.4,"NAN",0,0.25,12.45
"2010-12-01 19:50:00",11352,1.109,342.4,29.28,3.851,45.54,45.56,45.51,91.5,"NAN",0,0.25,12.45
"2010-12-01 19:55:00",11353,3.358,300.7,19.34,6.027,45.52,45.53,45.51,91.5,"NAN",0,0.25,12.44
"2010-12-01 20:00:00",11354,2.786,264.3,21.01,4.835,45.49,45.53,45.45,91.5,"NAN",0,0.25,12.44
"2010-12-01 20:05:00",11355,2.769,241.1,12.27,4,45.45,45.48,45.4,91.5,"NAN",0.01,0.26,12.44
"2010-12-01 20:10:00",11356,2.817,259.3,12.85,4.149,45.37,45.43,45.34,91.5,"NAN",0,0.26,12.44
"2010-12-01 20:15:00",11357,2.585,262,14.36,4.417,45.29,45.34,45.24,91.5,"NAN",0,0.26,12.43
"2010-12-01 20:20:00",11358,2.788,267.5,12.35,4.596,45.24,45.24,45.24,91.6,"NAN",0,0.26,12.43
"2010-12-01 20:25:00",11359,4.399,294.6,20.34,6.505,45.2,45.24,45.15,91.6,"NAN",0,0.26,12.43
"2010-12-01 20:30:00",11360,3.234,335.9,23.56,5.103,45.17,45.21,45.15,91.7,"NAN",0,0.26,12.43
"2010-12-01 20:35:00",11361,3.141,345.4,22.68,4.775,45.17,45.2,45.15,91.7,"NAN",0.01,0.27,12.42
"2010-12-01 20:40:00",11362,2.32,349.6,23.43,3.195,45.15,45.17,45.14,91.8,"NAN",0,0.27,12.42
"2010-12-01 20:45:00",11363,2.909,358.5,17.19,3.851,45.17,45.23,45.14,91.8,"NAN",0,0.27,12.42
"2010-12-01 20:50:00",11364,2.73,346.7,20.39,4.775,45.22,45.23,45.17,91.8,"NAN",0,0.27,12.42
"2010-12-01 20:55:00",11365,4.047,356.2,11.54,6.892,45.22,45.22,45.19,91.8,"NAN",0,0.27,12.42
"2010-12-01 21:00:00",11366,4.756,358.1,10.06,7.727,45.22,45.25,45.22,91.8,"NAN",0,0.27,12.41
"2010-12-01 21:05:00",11367,4.282,356.4,12.63,7.399,45.22,45.27,45.21,91.9,"NAN",0,0.27,12.41
"2010-12-01 21:10:00",11368,3.844,2.27,11.8,6.534,45.27,45.3,45.24,91.9,"NAN",0,0.27,12.41
"2010-12-01 21:15:00",11369,4.286,16.74,10.4,6.445,45.24,45.27,45.16,91.8,"NAN",0,0.27,12.4
"2010-12-01 21:20:00",11370,2.75,36.28,9.38,3.761,45.16,45.22,45.13,91.8,"NAN",0,0.27,12.4
"2010-12-01 21:25:00",11371,2.648,52.53,14.22,5.55,45.12,45.17,45.08,91.7,"NAN",0,0.27,12.4